ROMMA est une association bénévole à but non lucratif. Votre soutien est indispensable : ADHERER à ROMMA ou FAIRE un DON

Les Sept-Laux - (38, Isère)

Belledonne (2130 m)   Longitude: 06° 01' 50" E   Latitude: 45° 15' 26" N Station romma n°147
 

Détail journalier du     <<     >>

Température Humidité Vent Dir Rafale Dir. rafale Ensol.
Heure (°C) (%) (km/h) (km/h) (min)
01:00 0.71627S50SSE0
02:00 0.33323S56SSE0
03:00 0.74431S60SSO0
04:00 0.74337S71S0
05:00 1.64437S74SSO0
06:00 0.55146S87SSE0
07:00 1.84329SSO64S0
08:00 1.14437SSO68S0
09:00 1.74039SSO76SSO0
10:00 1.64039S72SSO0
11:00 2.13646S89SSE0
12:00 2.63452S92SSE0
13:00 1.34450SSO101SSO0
14:00 -0.66460SSO114S0
15:00 0.46255S108SSE0
16:00 -1.78050SSO92SSO0
17:00 -2.49158SSO105SO0
18:00 -3.29148OSO90SO0
19:00 -6.48931SSO246NO0
20:00 -7.08917SSO34SSO0
21:00 -7.48915SSO26SSO0
22:00 -7.68919SSO34SSO0
23:00 -7.88925SSO37OSO0
minuit -7.98823SSO37OSO0

Graphique du 10-02-2019

 

Serveur OMMA